| time (UTC) | temp C | wind direction | speed KPH | gust KPH | rain 1hr cm | rain 24hr cm | rain mn cm | humidity % | barometer mb |
| 20260505124549 | 19 | 178 | 6.4 | 19.3 | 0.00 | 0.00 | 0.00 | 62 | 1007.7 |
| 20260505123045 | 17 | 136 | 6.4 | 16.1 | 0.00 | 0.00 | 0.00 | 66 | 1007.9 |
| 20260505121542 | 17 | 151 | 8.0 | 16.1 | 0.00 | 0.00 | 0.00 | 66 | 1008.0 |
| 20260505120101 | 17 | 168 | 8.0 | 17.7 | 0.00 | 0.00 | 0.00 | 66 | 1008.1 |
| 20260505114541 | 16 | 159 | 9.7 | 16.1 | 0.00 | 0.00 | 0.00 | 67 | 1007.7 |
| 20260505113047 | 16 | 117 | 4.8 | 16.1 | 0.00 | 0.00 | 0.00 | 68 | 1007.7 |
| 20260505111544 | 16 | 146 | 4.8 | 12.9 | 0.00 | 0.00 | 0.00 | 69 | 1007.6 |
| 20260505101551 | 16 | 158 | 4.8 | 12.9 | 0.00 | 0.00 | 0.00 | 67 | 1007.2 |
| 20260505100045 | 16 | 171 | 8.0 | 19.3 | 0.00 | 0.00 | 0.00 | 67 | 1007.1 |
| 20260505094542 | 16 | 151 | 4.8 | 11.3 | 0.00 | 0.00 | 0.00 | 67 | 1006.7 |
| 20260505093043 | 16 | 154 | 3.2 | 14.5 | 0.00 | 0.00 | 0.00 | 66 | 1006.7 |
| 20260505091540 | 16 | 154 | 8.0 | 22.5 | 0.00 | 0.00 | 0.00 | 66 | 1006.5 |
| 20260505090051 | 16 | 143 | 8.0 | 17.7 | 0.00 | 0.00 | 0.00 | 65 | 1006.4 |
| 20260505084545 | 16 | 153 | 8.0 | 16.1 | 0.00 | 0.00 | 0.00 | 64 | 1006.6 |
| 20260505083048 | 16 | 165 | 8.0 | 16.1 | 0.00 | 0.00 | 0.00 | 64 | 1006.6 |
| 20260505081544 | 16 | 140 | 8.0 | 19.3 | 0.00 | 0.00 | 0.00 | 62 | 1006.5 |
| 20260505080042 | 16 | 156 | 6.4 | 16.1 | 0.00 | 0.00 | 0.00 | 62 | 1006.4 |
| 20260505074549 | 16 | 157 | 9.7 | 17.7 | 0.00 | 0.00 | 0.00 | 63 | 1006.3 |
| 20260505073058 | 16 | 149 | 4.8 | 11.3 | 0.00 | 0.00 | 0.00 | 61 | 1006.2 |
| 20260505071552 | 17 | 168 | 6.4 | 12.9 | 0.00 | 0.00 | 0.00 | 61 | 1006.2 |
| 20260505070054 | 17 | 155 | 6.4 | 17.7 | 0.00 | 0.00 | 0.00 | 60 | 1006.3 |
| 20260505064544 | 17 | 143 | 8.0 | 14.5 | 0.00 | 0.00 | 0.00 | 60 | 1006.4 |
| 20260505063041 | 17 | 148 | 6.4 | 14.5 | 0.00 | 0.00 | 0.00 | 58 | 1006.4 |
| 20260505061548 | 17 | 158 | 8.0 | 14.5 | 0.00 | 0.00 | 0.00 | 57 | 1006.5 |
| 20260505060048 | 17 | 156 | 8.0 | 16.1 | 0.00 | 0.00 | 0.00 | 56 | 1006.6 |
| 20260505054608 | 17 | 173 | 4.8 | 9.7 | 0.00 | 0.00 | 0.00 | 56 | 1006.7 |
| 20260505053059 | 17 | 156 | 3.2 | 11.3 | 0.00 | 0.00 | 0.00 | 55 | 1006.7 |
| 20260505051541 | 17 | 173 | 8.0 | 14.5 | 0.00 | 0.00 | 0.00 | 55 | 1006.7 |
| 20260505041541 | 17 | 183 | 1.6 | 4.8 | 0.00 | 0.00 | 0.00 | 54 | 1006.7 |
| 20260505040046 | 17 | 184 | 1.6 | 9.7 | 0.00 | 0.00 | 0.00 | 53 | 1006.6 |
| 20260505034549 | 18 | 205 | 3.2 | 11.3 | 0.00 | 0.00 | 0.00 | 52 | 1006.4 |
| 20260505033048 | 18 | 174 | 3.2 | 8.0 | 0.00 | 0.00 | 0.00 | 52 | 1006.4 |
| 20260505031557 | 18 | 204 | 3.2 | 9.7 | 0.00 | 0.00 | 0.00 | 51 | 1006.2 |
| 20260505030042 | 18 | 176 | 3.2 | 11.3 | 0.00 | 0.00 | 0.00 | 50 | 1006.3 |